380  
ASUS42 KMHX 291425  
RWRMHX  
WEATHER ROUNDUP FOR EASTERN NORTH CAROLINA  
NATIONAL WEATHER SERVICE NEWPORT/MOREHEAD CITY NC  
1000 AM EDT SAT AUG 29 2015  
 
NOTE: "FAIR" INDICATES FEW OR NO CLOUDS BELOW 12,000 FEET  
WITH NO SIGNIFICANT WEATHER AND/OR S TO VISIBILITY
 
 
NCZ015>017-031-032-045>047-102-103-291500-  
NORTH COAST  
 
CITY SKY/WX TMP DP RH WIND PRES REMARKS
 
EDENTON SUNNY 78 64 62 NE10 30.22S  
ELIZABETH CITY SUNNY 79 64 60 NE10 30.22R  
KITTY HAWK MOSUNNY 80 66 62 NE7 30.20R  
MANTEO MOSUNNY 79 68 70 NE12 30.21R  
 

 
 
NCZ045>047-081-094-103-104-291500-  
CENTRAL COAST  
 
CITY SKY/WX TMP DP RH WIND PRES REMARKS
 
FRISCO PTSUNNY 81 72 74 NE12G18 30.16R  
SWANQUARTER NOT AVBL  
 

 
 
NCZ095-097-098-100-101-291500-  
SOUTHERN COAST  
 
CITY SKY/WX TMP DP RH WIND PRES REMARKS
 
BEAUFORT PTSUNNY 79 72 79 NE13G21 30.16S  
CEDAR ISLAND NOT AVBL  
JACKSONVILLE SUNNY 78 66 66 N9 30.18R  
PINEY ISLAND PTSUNNY N/A N/A N/A NE14G21 30.17R  
WILMINGTON PTSUNNY 77 69 76 NE12 30.17S  
 

 
 
NCZ011>013-027>030-043-044-078>080-089-090>093-098-291500-  
COASTAL PLAIN  
 
CITY SKY/WX TMP DP RH WIND PRES REMARKS
 
AHOSKIE SUNNY 76 62 63 NE3 30.24R  
CLINTON PTSUNNY 77 66 70 NE7 30.22S  
ELIZABETHTOWN PTSUNNY 73 66 76 CALM 30.21R  
GOLDSBORO MOSUNNY 76 64 67 NE9 30.21R  
GREENVILLE SUNNY 77 64 65 NE8 30.23R  
HAVELOCK MOSUNNY 80 69 69 NE13 30.18S  
KENANSVILLE N/A 73 65 75 N7 30.23R  
KINSTON SUNNY 75 66 73 N8 30.22S  
NEW BERN SUNNY 78 68 71 NE12 30.20S  
RICHLANDS PTSUNNY 79 64 61 N10 30.19S  
ROCKY MOUNT SUNNY 78 62 57 VRB6 30.24R  
WASHINGTON SUNNY 77 65 66 NE9 30.21S  
WHITEVILLE PTSUNNY 73 67 80 N3 30.20R  
 

 
 
AMZ130-135-150-152-154-156-158-170-250-252-270-ANZ085-086-088-633-658-670-291500-  
MARINE OBSERVATIONS  
 
STATION/POSITION TIME TEMP WIND PRES WAVE SWELL
 
AIR SEA DIR/SP/G HT/PER HT/PER  
(UTC) (F) (DEG/KT/KT) (MB) (FT/S) (FT/S)  
CHESAPEAKE LIGHT 1400 76 60/ 11/ 12 1024.2  
64 E VA BEACH 1350 76 78 50/ 12/ 14 1022.5 4/10 3/10  
DUCK NOT AVBL  
2 E DUCK 1311 78 N/A 4/11 2/11  
OREGON INLET NOT AVBL  
13E OREGON INLT 1400 78 N/A 4/10 2/11  
HATTERAS CG NOT AVBL  
DIAMOND BUOY 1350 78 82 50/ 14/ 16 1020.8 5/10 3/10  
CAPE LOOKOUT 1400 78 30/ 19/ 21 1020.8  
BEAUFORT LAB NOT AVBL  
30 SE NEW RVR IN 1308 80 81 40/ 17/ 23 1020.7  
30 SE NEW RVR IN 1325 81 N/A 5/ 6 2/13  
27 SE WRIGHTSVLE 1400 75 81 40/ 16/ 17 N/A  
5 SE WRIGHTSVLE 1308 73 82 20/ 14/ 19 1021.1  
225 S CAPE HAT 1350 83 83 200/ 12/ 16 1020.6 5/11 5/11  
41 SE CHARLESTON 1350 81 85 60/ 12/ 17 1020.3 4/ 5 3/ 6  
 

 
 
CLICK HERE TO GO TO PREVIOUS BULLETINS.

The Nexlab NC Page Main Text Page